Regional Weather Roundup
Issued by NWS

Home | Current Version | Previous Version | Text Only | Print | Product List | Glossary On
Versions: 1 2 3 4 5 6 7 8 9 10 11 12 13 14 15 16 17 18 19 20 21 22 23 24 25 26 27 28 29 30 31 32 33 34 35 36 37 38 39 40 41 42 43 44 45 46 47 48 49 50
000
ASUS43 KBIS 032020
RWRND

NORTH DAKOTA REGIONAL WEATHER ROUNDUP
NATIONAL WEATHER SERVICE BISMARCK ND
200 PM CST TUE MAR 03 2015

NOTE: "FAIR" INDICATES FEW OR NO CLOUDS BELOW 12,000 FEET WITH NO
SIGNIFICANT WEATHER AND/OR OBSTRUCTIONS TO VISIBILITY.


NDZ001>003-009>011-017-032100-
NORTHWEST NORTH DAKOTA

CITY           SKY/WX    TMP DP  RH WIND       PRES   REMARKS
WILLISTON      PTSUNNY   10  -2  58 NW22G29   30.05F WCI -10
MINOT          LGT SNOW   5  -5  63 W29G36    29.98F WCI -19
MINOT AFB      BLWGSNOW   3  -2  78 NW35      29.96F VSB 3/4 WCI -23
$$

NDZ018>021-031>035-040>046-032100-
SOUTHWEST NORTH DAKOTA

CITY           SKY/WX    TMP DP  RH WIND       PRES   REMARKS
BISMARCK       PTSUNNY   14  -2  49 NW21G35   30.01F WCI  -4
DICKINSON      CLOUDY    13  -6  42 NW28G38   29.95F WCI  -8
GARRISON         N/A      6  -4  63 NW35G41   29.98F WCI -19
HETTINGER ARPT PTSUNNY   15  -6  39 NW23G38   29.99  WCI  -3
$$

NDZ004>008-012>016-024-026-027-054-032100-
NORTHEAST NORTH DAKOTA

CITY           SKY/WX    TMP DP  RH WIND       PRES   REMARKS
GRAND FORKS    CLOUDY     9  -2  61 NW23G33   29.90  WCI -11
GRND FRKS AFB  FAIR       9  -6  49 NW25G32   29.89F WCI -12
DEVILS LAKE    FAIR       3  -8  60 W29G37    29.89F WCI -21
$$

NDZ022-023-025-028>030-036>039-047>053-032100-
SOUTHEAST NORTH DAKOTA

CITY           SKY/WX    TMP DP  RH WIND       PRES   REMARKS
FARGO          FLURRIES  13   0  56 NW26G33   29.91S WCI  -7
JAMESTOWN      CLOUDY     9  -1  64 NW23G37   29.92  WCI -11
$$




USA.gov is the U.S. government's official web portal to all federal, state and local government web resources and services.